| time (UTC) | temp F | wind direction | speed MPH | gust MPH | rain 1hr in | rain 24hr in | rain mn in | humidity % | barometer mb |
| 20260508085017 | 59 | 0.0 | 0.0 | 0.00 | 0.01 | 0.00 | 86 | 1012.1 | |
| 20260508084017 | 59 | 0.0 | 0.0 | 0.00 | 0.01 | 0.00 | 86 | 1012.1 | |
| 20260508083017 | 59 | 0.0 | 1.0 | 0.00 | 0.01 | 0.00 | 86 | 1012.0 | |
| 20260508082038 | 59 | 0.0 | 1.0 | 0.00 | 0.01 | 0.00 | 86 | 1011.7 | |
| 20260508081017 | 59 | 0.0 | 1.0 | 0.00 | 0.01 | 0.00 | 86 | 1012.1 | |
| 20260508080017 | 59 | 0.0 | 0.0 | 0.00 | 0.01 | 0.00 | 86 | 1012.2 | |
| 20260508075037 | 60 | 0.0 | 0.0 | 0.00 | 0.01 | 0.00 | 86 | 1012.2 | |
| 20260508074016 | 60 | 0.0 | 0.0 | 0.00 | 0.01 | 0.00 | 85 | 1012.6 | |
| 20260508073017 | 60 | 0.0 | 0.0 | 0.00 | 0.01 | 0.00 | 85 | 1012.8 | |
| 20260508072037 | 60 | 0.0 | 0.0 | 0.00 | 0.01 | 0.00 | 85 | 1012.9 | |
| 20260508071016 | 60 | 0.0 | 1.0 | 0.00 | 0.01 | 0.00 | 84 | 1012.9 | |
| 20260508070020 | 60 | 0.0 | 0.0 | 0.00 | 0.01 | 0.00 | 84 | 1013.0 | |
| 20260508065017 | 60 | 0.0 | 0.0 | 0.00 | 0.01 | 0.00 | 85 | 1012.8 | |
| 20260508063017 | 60 | 0.0 | 2.0 | 0.00 | 0.01 | 0.00 | 85 | 1012.6 | |
| 20260508061138 | 60 | 23 | 1.0 | 4.0 | 0.00 | 0.01 | 0.00 | 85 | 1012.5 |
| 20260508060037 | 60 | 23 | 1.0 | 3.0 | 0.00 | 0.01 | 0.00 | 85 | 1012.4 |
| 20260508055016 | 60 | 0.0 | 3.0 | 0.00 | 0.01 | 0.00 | 86 | 1012.4 | |
| 20260508054016 | 60 | 0.0 | 1.0 | 0.00 | 0.01 | 0.00 | 86 | 1012.6 | |
| 20260508053016 | 60 | 0.0 | 0.0 | 0.00 | 0.01 | 0.00 | 86 | 1012.8 | |
| 20260508052036 | 60 | 0.0 | 0.0 | 0.00 | 0.01 | 0.00 | 84 | 1013.2 | |
| 20260508051037 | 60 | 0.0 | 0.0 | 0.00 | 0.01 | 0.00 | 84 | 1013.6 | |
| 20260508050138 | 60 | 0.0 | 0.0 | 0.00 | 0.01 | 0.01 | 83 | 1013.3 | |
| 20260508045015 | 60 | 0.0 | 1.0 | 0.00 | 0.01 | 0.01 | 83 | 1013.4 | |
| 20260508044117 | 60 | 23 | 1.0 | 3.0 | 0.00 | 0.01 | 0.01 | 83 | 1013.2 |
| 20260508043016 | 60 | 0.0 | 3.0 | 0.00 | 0.01 | 0.01 | 83 | 1013.0 | |
| 20260508042016 | 60 | 0.0 | 2.0 | 0.00 | 0.01 | 0.01 | 83 | 1013.3 | |
| 20260508040018 | 60 | 0.0 | 0.0 | 0.00 | 0.01 | 0.01 | 83 | 1013.2 | |
| 20260508035018 | 60 | 0.0 | 1.0 | 0.00 | 0.01 | 0.01 | 82 | 1013.7 | |
| 20260508034017 | 60 | 23 | 2.0 | 6.0 | 0.00 | 0.01 | 0.01 | 82 | 1013.3 |
| 20260508033038 | 60 | 23 | 3.0 | 6.0 | 0.00 | 0.01 | 0.01 | 83 | 1012.9 |
| 20260508032017 | 60 | 23 | 2.0 | 6.0 | 0.00 | 0.01 | 0.01 | 84 | 1012.8 |
| 20260508031017 | 60 | 45 | 1.0 | 3.0 | 0.00 | 0.01 | 0.01 | 85 | 1011.1 |
| 20260508030017 | 60 | 0.0 | 3.0 | 0.00 | 0.01 | 0.01 | 85 | 1012.5 | |
| 20260508025018 | 61 | 0.0 | 0.0 | 0.00 | 0.01 | 0.01 | 85 | 1013.1 | |
| 20260508024017 | 61 | 0.0 | 0.0 | 0.00 | 0.01 | 0.01 | 85 | 1012.6 | |
| 20260508023139 | 61 | 0.0 | 0.0 | 0.00 | 0.01 | 0.01 | 84 | 1013.5 | |
| 20260508022017 | 61 | 0.0 | 0.0 | 0.00 | 0.01 | 0.01 | 84 | 1013.2 | |
| 20260508021017 | 61 | 0.0 | 0.0 | 0.00 | 0.01 | 0.01 | 83 | 1013.2 | |
| 20260508015018 | 61 | 0.0 | 0.0 | 0.00 | 0.01 | 0.01 | 82 | 1012.8 | |
| 20260508014038 | 61 | 338 | 1.0 | 3.0 | 0.00 | 0.01 | 0.01 | 82 | 1012.7 |
| 20260508013018 | 61 | 0.0 | 0.0 | 0.00 | 0.01 | 0.01 | 82 | 1012.5 | |
| 20260508012038 | 61 | 0.0 | 1.0 | 0.00 | 0.01 | 0.01 | 81 | 1012.0 | |
| 20260508011017 | 61 | 45 | 1.0 | 3.0 | 0.00 | 0.01 | 0.01 | 80 | 1012.1 |
| 20260508010017 | 61 | 45 | 1.0 | 5.0 | 0.00 | 0.01 | 0.01 | 80 | 1011.2 |
| 20260508005017 | 61 | 23 | 1.0 | 2.0 | 0.00 | 0.01 | 0.01 | 80 | 1011.9 |
| 20260508003017 | 62 | 23 | 1.0 | 6.0 | 0.00 | 0.01 | 0.01 | 78 | 1012.1 |
| 20260508002017 | 62 | 45 | 2.0 | 6.0 | 0.00 | 0.01 | 0.01 | 78 | 1011.7 |
| 20260508001017 | 62 | 45 | 2.0 | 5.0 | 0.00 | 0.01 | 0.01 | 78 | 1011.8 |
| 20260508000017 | 62 | 45 | 2.0 | 4.0 | 0.00 | 0.01 | 0.01 | 78 | 1011.6 |
| 20260507235017 | 62 | 23 | 1.0 | 4.0 | 0.00 | 0.01 | 0.01 | 78 | 1012.0 |
| 20260507234017 | 62 | 68 | 1.0 | 5.0 | 0.00 | 0.01 | 0.01 | 80 | 1012.1 |
| 20260507233058 | 62 | 113 | 2.0 | 3.0 | 0.00 | 0.01 | 0.01 | 80 | 1011.9 |
| 20260507232017 | 61 | 135 | 2.0 | 4.0 | 0.00 | 0.01 | 0.01 | 80 | 1012.8 |
| 20260507231017 | 61 | 68 | 2.0 | 5.0 | 0.00 | 0.01 | 0.01 | 79 | 1012.7 |
| 20260507230017 | 61 | 68 | 2.0 | 5.0 | 0.00 | 0.01 | 0.01 | 79 | 1012.0 |
| 20260507224017 | 62 | 0 | 3.0 | 7.0 | 0.00 | 0.01 | 0.01 | 80 | 1013.9 |
| 20260507223017 | 62 | 68 | 2.0 | 5.0 | 0.00 | 0.01 | 0.01 | 78 | 1013.1 |
| 20260507222016 | 62 | 23 | 2.0 | 5.0 | 0.00 | 0.01 | 0.01 | 79 | 1013.4 |
| 20260507221017 | 61 | 90 | 2.0 | 6.0 | 0.00 | 0.01 | 0.01 | 79 | 1012.5 |
| 20260507220017 | 62 | 45 | 2.0 | 6.0 | 0.00 | 0.01 | 0.01 | 79 | 1013.5 |
| 20260507215037 | 61 | 90 | 1.0 | 5.0 | 0.00 | 0.01 | 0.01 | 79 | 1013.8 |
| 20260507214017 | 61 | 68 | 3.0 | 8.0 | 0.00 | 0.01 | 0.01 | 80 | 1014.0 |
| 20260507213017 | 61 | 45 | 1.0 | 5.0 | 0.00 | 0.01 | 0.01 | 81 | 1014.4 |
| 20260507212016 | 61 | 45 | 1.0 | 5.0 | 0.00 | 0.01 | 0.01 | 82 | 1014.3 |
| 20260507211017 | 60 | 45 | 1.0 | 6.0 | 0.00 | 0.01 | 0.01 | 82 | 1014.3 |
| 20260507210017 | 60 | 23 | 2.0 | 7.0 | 0.00 | 0.01 | 0.01 | 82 | 1014.6 |
| 20260507205016 | 60 | 0 | 3.0 | 10.0 | 0.00 | 0.01 | 0.01 | 82 | 1014.6 |
| 20260507204037 | 60 | 45 | 3.0 | 9.0 | 0.00 | 0.01 | 0.01 | 81 | 1014.9 |
| 20260507203017 | 60 | 23 | 3.0 | 10.0 | 0.00 | 0.01 | 0.01 | 82 | 1015.0 |
| 20260507202017 | 61 | 23 | 4.0 | 11.0 | 0.00 | 0.01 | 0.01 | 82 | 1014.5 |
| 20260507201016 | 61 | 23 | 5.0 | 11.0 | 0.00 | 0.01 | 0.01 | 82 | 1014.4 |
| 20260507200016 | 60 | 45 | 4.0 | 14.0 | 0.00 | 0.01 | 0.01 | 83 | 1014.5 |
| 20260507195016 | 61 | 45 | 4.0 | 11.0 | 0.00 | 0.01 | 0.01 | 83 | 1014.8 |
| 20260507194016 | 61 | 45 | 4.0 | 10.0 | 0.00 | 0.01 | 0.01 | 84 | 1014.9 |
| 20260507193017 | 60 | 68 | 3.0 | 8.0 | 0.00 | 0.01 | 0.01 | 86 | 1014.7 |
| 20260507192016 | 59 | 45 | 3.0 | 6.0 | 0.00 | 0.01 | 0.01 | 87 | 1014.3 |
| 20260507191016 | 59 | 68 | 3.0 | 6.0 | 0.00 | 0.01 | 0.01 | 86 | 1014.8 |
| 20260507190016 | 60 | 45 | 3.0 | 7.0 | 0.00 | 0.01 | 0.01 | 85 | 1015.2 |
| 20260507185016 | 60 | 68 | 3.0 | 7.0 | 0.00 | 0.01 | 0.01 | 84 | 1015.1 |
| 20260507184036 | 61 | 23 | 3.0 | 9.0 | 0.00 | 0.01 | 0.01 | 83 | 1015.5 |
| 20260507183016 | 61 | 45 | 4.0 | 12.0 | 0.00 | 0.01 | 0.01 | 83 | 1015.6 |
| 20260507182016 | 60 | 23 | 5.0 | 12.0 | 0.00 | 0.01 | 0.01 | 83 | 1015.6 |
| 20260507181036 | 61 | 23 | 4.0 | 10.0 | 0.00 | 0.01 | 0.01 | 83 | 1015.8 |
| 20260507180016 | 61 | 0 | 4.0 | 10.0 | 0.00 | 0.01 | 0.01 | 81 | 1015.9 |
| 20260507175037 | 62 | 0 | 3.0 | 6.0 | 0.00 | 0.01 | 0.01 | 83 | 1015.8 |
| 20260507174016 | 60 | 68 | 1.0 | 5.0 | 0.00 | 0.01 | 0.01 | 87 | 1015.4 |
| 20260507173037 | 59 | 23 | 2.0 | 7.0 | 0.00 | 0.01 | 0.01 | 86 | 1016.0 |
| 20260507172016 | 59 | 23 | 1.0 | 6.0 | 0.00 | 0.01 | 0.01 | 86 | 1015.9 |
| 20260507171036 | 60 | 45 | 3.0 | 8.0 | 0.00 | 0.01 | 0.01 | 86 | 1015.2 |
| 20260507170016 | 60 | 68 | 4.0 | 12.0 | 0.00 | 0.01 | 0.01 | 85 | 1015.2 |
| 20260507165036 | 61 | 68 | 6.0 | 14.0 | 0.00 | 0.01 | 0.01 | 87 | 1014.5 |
| 20260507164016 | 59 | 45 | 5.0 | 15.0 | 0.00 | 0.01 | 0.01 | 92 | 1014.8 |
| 20260507163018 | 56 | 23 | 5.0 | 12.0 | 0.01 | 0.01 | 0.01 | 93 | 1014.7 |
| 20260507162017 | 56 | 0 | 4.0 | 11.0 | 0.01 | 0.01 | 0.01 | 94 | 1015.6 |
| 20260507161017 | 56 | 23 | 3.0 | 9.0 | 0.01 | 0.01 | 0.01 | 94 | 1016.0 |
| 20260507160038 | 55 | 45 | 5.0 | 14.0 | 0.01 | 0.01 | 0.01 | 94 | 1014.8 |
| 20260507155017 | 55 | 23 | 5.0 | 12.0 | 0.01 | 0.01 | 0.01 | 94 | 1014.9 |
| 20260507154018 | 54 | 23 | 6.0 | 14.0 | 0.01 | 0.01 | 0.01 | 94 | 1014.7 |
| 20260507153017 | 54 | 23 | 6.0 | 13.0 | 0.00 | 0.00 | 0.00 | 94 | 1014.8 |
| 20260507152018 | 54 | 45 | 5.0 | 16.0 | 0.00 | 0.00 | 0.00 | 94 | 1014.5 |
| 20260507151017 | 54 | 23 | 5.0 | 12.0 | 0.00 | 0.00 | 0.00 | 94 | 1016.0 |
| 20260507150018 | 54 | 0 | 4.0 | 10.0 | 0.00 | 0.00 | 0.00 | 94 | 1016.4 |
| 20260507145039 | 54 | 23 | 5.0 | 12.0 | 0.00 | 0.05 | 0.00 | 94 | 1016.2 |
| 20260507144038 | 54 | 45 | 3.0 | 11.0 | 0.00 | 0.05 | 0.00 | 94 | 1015.6 |
| 20260507143017 | 54 | 45 | 3.0 | 12.0 | 0.00 | 0.05 | 0.00 | 94 | 1015.6 |
| 20260507142038 | 54 | 23 | 5.0 | 16.0 | 0.00 | 0.05 | 0.00 | 94 | 1014.7 |
| 20260507141017 | 54 | 68 | 5.0 | 14.0 | 0.00 | 0.05 | 0.00 | 94 | 1014.4 |
| 20260507140018 | 54 | 45 | 5.0 | 13.0 | 0.00 | 0.06 | 0.00 | 94 | 1014.5 |
| 20260507135017 | 54 | 23 | 5.0 | 15.0 | 0.00 | 0.06 | 0.00 | 94 | 1015.4 |
| 20260507134017 | 54 | 23 | 5.0 | 15.0 | 0.00 | 0.07 | 0.00 | 94 | 1015.1 |
| 20260507133017 | 54 | 45 | 6.0 | 15.0 | 0.00 | 0.07 | 0.00 | 94 | 1014.8 |
| 20260507132037 | 55 | 23 | 5.0 | 11.0 | 0.00 | 0.08 | 0.00 | 93 | 1015.3 |
| 20260507131018 | 55 | 23 | 5.0 | 13.0 | 0.00 | 0.08 | 0.00 | 94 | 1015.4 |
| 20260507130017 | 55 | 23 | 6.0 | 14.0 | 0.00 | 0.08 | 0.00 | 94 | 1015.0 |
| 20260507125037 | 55 | 45 | 5.0 | 13.0 | 0.00 | 0.08 | 0.00 | 94 | 1015.1 |
| 20260507124038 | 55 | 23 | 5.0 | 12.0 | 0.00 | 0.08 | 0.00 | 93 | 1014.5 |
| 20260507123017 | 55 | 0 | 4.0 | 14.0 | 0.00 | 0.08 | 0.00 | 93 | 1013.9 |
| 20260507122037 | 55 | 23 | 4.0 | 12.0 | 0.00 | 0.09 | 0.00 | 93 | 1014.1 |
| 20260507121017 | 55 | 0 | 4.0 | 14.0 | 0.00 | 0.09 | 0.00 | 93 | 1013.7 |
| 20260507120017 | 56 | 23 | 6.0 | 14.0 | 0.00 | 0.09 | 0.00 | 93 | 1013.7 |
| 20260507115017 | 56 | 0 | 6.0 | 11.0 | 0.00 | 0.09 | 0.00 | 93 | 1014.0 |
| 20260507114017 | 56 | 45 | 3.0 | 10.0 | 0.00 | 0.09 | 0.00 | 92 | 1014.1 |
| 20260507113017 | 56 | 45 | 4.0 | 14.0 | 0.00 | 0.09 | 0.00 | 92 | 1013.9 |
| 20260507112017 | 56 | 45 | 4.0 | 11.0 | 0.00 | 0.09 | 0.00 | 92 | 1013.6 |
| 20260507111037 | 57 | 0 | 5.0 | 13.0 | 0.00 | 0.09 | 0.00 | 92 | 1013.4 |
| 20260507110016 | 57 | 23 | 5.0 | 12.0 | 0.00 | 0.09 | 0.00 | 92 | 1013.6 |
| 20260507105017 | 57 | 23 | 4.0 | 9.0 | 0.00 | 0.09 | 0.00 | 92 | 1013.4 |
| 20260507104017 | 57 | 23 | 4.0 | 8.0 | 0.00 | 0.09 | 0.00 | 92 | 1013.2 |
| 20260507103017 | 57 | 45 | 3.0 | 11.0 | 0.00 | 0.09 | 0.00 | 92 | 1013.6 |
| 20260507102017 | 57 | 45 | 4.0 | 10.0 | 0.00 | 0.09 | 0.00 | 92 | 1013.3 |
| 20260507101017 | 57 | 23 | 4.0 | 13.0 | 0.00 | 0.09 | 0.00 | 91 | 1013.1 |
| 20260507100037 | 57 | 23 | 3.0 | 10.0 | 0.00 | 0.09 | 0.00 | 92 | 1013.2 |
| 20260507095017 | 57 | 23 | 3.0 | 7.0 | 0.00 | 0.09 | 0.00 | 92 | 1013.2 |
| 20260507094017 | 57 | 23 | 2.0 | 6.0 | 0.00 | 0.09 | 0.00 | 92 | 1013.0 |
| 20260507093016 | 57 | 23 | 3.0 | 7.0 | 0.00 | 0.09 | 0.00 | 92 | 1012.9 |
| 20260507092036 | 57 | 23 | 3.0 | 7.0 | 0.00 | 0.09 | 0.00 | 92 | 1012.9 |
| 20260507091016 | 58 | 23 | 3.0 | 7.0 | 0.00 | 0.09 | 0.00 | 92 | 1012.9 |
| 20260507090016 | 58 | 45 | 2.0 | 7.0 | 0.00 | 0.09 | 0.00 | 93 | 1013.0 |